Back to catalog

DELTA 1 R/B(1)

AliveUNKNOWN
NORAD 15202·ROCKET BODY·🇺🇸 United States

Launched Aug 16, 1984 from Cape Canaveral Space Force Station

Loading…

Next Passes (next 24 hours)

TLE

FreshSource: Space-Track

Epoch: Sep 14, 2026, 11:59 UTC

1 15202U 84088D   26257.49931500  .00000288  00000-0  14179-3 0  9994
2 15202  28.9190 338.3970 1982941 310.3925  33.9373 10.82359407659569

Track DELTA 1 R/B(1) in real time with AllMySat

Download on the App Store